DLH515 EDDH-EDDS

Flight info

Callsign DLH515
Flight time 0h 54m
Altitude 35000
Route IDEKO7G/33 IDEKO N850 NIE DCT BERXO DCT SILWE DCT OSBIT P605 TOSTU T726 LBU
Aircraft A320/M-SDE3FGHIRWY/LB1

Departure

Time 2026-04-25 18:25
Airport Hamburg Helmut Schmidt Airport (EDDH)

Arrival

Time 2026-04-25 19:19
Airport Stuttgart Airport (EDDS)
Time Latitude Longitude Altitude Speed Heading
2026-04-25 17:47 53.63243 10.00016 46 ft 0 kts 322°
2026-04-25 18:14 53.63231 10.00031 47 ft 2 kts 322°
2026-04-25 18:14 53.63217 10.00048 47 ft 2 kts 314°
2026-04-25 18:15 53.63207 10.00069 49 ft 2 kts 349°
2026-04-25 18:15 53.63192 10.00067 44 ft 0 kts 53°
2026-04-25 18:18 53.63213 10.00111 48 ft 7 kts 51°
2026-04-25 18:19 53.63214 10.00171 51 ft 6 kts 139°
2026-04-25 18:19 53.63162 10.00187 48 ft 8 kts 176°
2026-04-25 18:19 53.63112 10.00192 51 ft 7 kts 176°
2026-04-25 18:19 53.63070 10.00180 51 ft 6 kts 204°
2026-04-25 18:20 53.63039 10.00150 51 ft 4 kts 212°
2026-04-25 18:20 53.63016 10.00126 51 ft 3 kts 212°
2026-04-25 18:20 53.62989 10.00096 51 ft 9 kts 213°
2026-04-25 18:20 53.62937 10.00036 50 ft 9 kts 221°
2026-04-25 18:21 53.62907 9.99941 48 ft 9 kts 245°
2026-04-25 18:21 53.62899 9.99913 50 ft 0 kts 243°
2026-04-25 18:22 53.62897 9.99909 50 ft 2 kts 243°
2026-04-25 18:22 53.62878 9.99845 47 ft 9 kts 243°
2026-04-25 18:23 53.62878 9.99740 48 ft 10 kts 312°
2026-04-25 18:23 53.62908 9.99711 50 ft 0 kts 336°
2026-04-25 18:24 53.62926 9.99697 50 ft 18 kts 336°
2026-04-25 18:24 53.63275 9.99390 51 ft 90 kts 332°
2026-04-25 18:24 53.64018 9.98738 51 ft 145 kts 332°
2026-04-25 18:24 53.64968 9.97942 420 ft 161 kts 329°
2026-04-25 18:25 53.66027 9.97110 966 ft 173 kts 330°
2026-04-25 18:25 53.67132 9.96256 1727 ft 175 kts 331°
2026-04-25 18:25 53.68274 9.95392 2407 ft 185 kts 332°
2026-04-25 18:25 53.69461 9.94386 3171 ft 194 kts 329°
2026-04-25 18:26 53.70615 9.93176 4089 ft 196 kts 317°
2026-04-25 18:26 53.71346 9.91242 5048 ft 201 kts 291°
2026-04-25 18:26 53.71424 9.88785 5823 ft 223 kts 266°
2026-04-25 18:26 53.70900 9.86206 6589 ft 239 kts 257°
2026-04-25 18:27 53.70308 9.83628 7428 ft 242 kts 258°
2026-04-25 18:27 53.69710 9.80927 8317 ft 247 kts 259°
2026-04-25 18:27 53.69153 9.78141 9065 ft 254 kts 261°
2026-04-25 18:27 53.68612 9.75282 9816 ft 259 kts 262°
2026-04-25 18:28 53.68067 9.72387 10049 ft 258 kts 262°
2026-04-25 18:28 53.67703 9.70469 10152 ft 260 kts 262°
2026-04-25 18:28 53.67130 9.67429 10456 ft 284 kts 261°
2026-04-25 18:29 53.65425 9.61044 11741 ft 321 kts 240°
2026-04-25 18:29 53.63672 9.58514 12505 ft 346 kts 219°
2026-04-25 18:30 53.56111 9.56076 14654 ft 381 kts 193°
2026-04-25 18:30 53.53463 9.55582 15302 ft 385 kts 194°
2026-04-25 18:30 53.50785 9.55069 15944 ft 389 kts 194°
2026-04-25 18:30 53.48077 9.54541 16592 ft 393 kts 194°
2026-04-25 18:31 53.45341 9.54003 17249 ft 397 kts 194°
2026-04-25 18:31 53.42576 9.53459 17890 ft 402 kts 194°
2026-04-25 18:31 53.39785 9.52905 18508 ft 406 kts 194°
2026-04-25 18:31 53.36962 9.52346 19050 ft 409 kts 194°
2026-04-25 18:32 53.34127 9.51790 19623 ft 411 kts 193°
2026-04-25 18:32 53.31279 9.51237 20222 ft 413 kts 193°
2026-04-25 18:32 53.28416 9.50676 20787 ft 416 kts 193°
2026-04-25 18:32 53.25526 9.50111 21335 ft 419 kts 193°
2026-04-25 18:33 53.22655 9.49552 21858 ft 422 kts 193°
2026-04-25 18:33 53.19760 9.48985 22374 ft 425 kts 193°
2026-04-25 18:33 53.16741 9.48394 22904 ft 429 kts 193°
2026-04-25 18:33 53.13805 9.47824 23415 ft 432 kts 193°
2026-04-25 18:34 53.10811 9.47245 23881 ft 435 kts 193°
2026-04-25 18:34 53.07792 9.46662 24307 ft 437 kts 193°
2026-04-25 18:34 53.04766 9.46079 24734 ft 439 kts 193°
2026-04-25 18:34 53.01677 9.45483 25166 ft 442 kts 193°
2026-04-25 18:35 52.98616 9.44892 25584 ft 444 kts 193°
2026-04-25 18:35 52.95545 9.44272 25998 ft 446 kts 193°
2026-04-25 18:35 52.92504 9.43628 26403 ft 448 kts 194°
2026-04-25 18:35 52.89369 9.42947 26813 ft 450 kts 194°
2026-04-25 18:36 52.86629 9.42345 27144 ft 451 kts 193°
2026-04-25 18:36 52.83514 9.41663 27565 ft 453 kts 193°
2026-04-25 18:36 52.80413 9.41097 27961 ft 459 kts 186°
2026-04-25 18:36 52.77202 9.41577 28314 ft 469 kts 174°
2026-04-25 18:37 52.73977 9.42549 28690 ft 472 kts 173°
2026-04-25 18:37 52.70739 9.43557 29065 ft 474 kts 173°
2026-04-25 18:37 52.67489 9.44587 29431 ft 476 kts 173°
2026-04-25 18:37 52.64227 9.45623 29790 ft 479 kts 173°
2026-04-25 18:38 52.61199 9.46578 30123 ft 480 kts 173°
2026-04-25 18:38 52.57912 9.47606 30460 ft 481 kts 173°
2026-04-25 18:38 52.54612 9.48627 30758 ft 483 kts 173°
2026-04-25 18:38 52.51309 9.49644 31039 ft 485 kts 173°
2026-04-25 18:39 52.47979 9.50670 31313 ft 486 kts 173°
2026-04-25 18:39 52.44636 9.51699 31589 ft 488 kts 173°
2026-04-25 18:39 52.41297 9.52722 31945 ft 488 kts 173°
2026-04-25 18:39 52.37965 9.53738 32307 ft 487 kts 173°
2026-04-25 18:40 52.34646 9.54746 32794 ft 483 kts 172°
2026-04-25 18:40 52.31346 9.55753 33245 ft 480 kts 172°
2026-04-25 18:40 52.28487 9.56630 33620 ft 479 kts 172°
2026-04-25 18:40 52.25214 9.57636 34009 ft 478 kts 172°
2026-04-25 18:41 52.21965 9.58631 34338 ft 477 kts 172°
2026-04-25 18:41 52.21696 9.58713 34375 ft 477 kts 172°
2026-04-25 18:41 52.19647 9.59337 34570 ft 477 kts 172°
2026-04-25 18:41 52.16374 9.60332 34866 ft 476 kts 172°
2026-04-25 18:42 52.13228 9.61289 35059 ft 477 kts 172°
2026-04-25 18:42 52.11073 9.61946 35081 ft 472 kts 173°
2026-04-25 18:42 52.03713 9.64183 35101 ft 464 kts 173°
2026-04-25 18:43 51.97735 9.65979 35105 ft 464 kts 173°
2026-04-25 18:43 51.91451 9.67860 35105 ft 463 kts 173°
2026-04-25 18:44 51.85441 9.69651 35106 ft 464 kts 173°
2026-04-25 18:44 51.79078 9.71544 35105 ft 464 kts 173°
2026-04-25 18:45 51.72723 9.73447 35112 ft 464 kts 173°
2026-04-25 18:45 51.66363 9.75344 35110 ft 467 kts 173°
2026-04-25 18:46 51.59871 9.77258 35116 ft 481 kts 173°
2026-04-25 18:46 51.53209 9.79213 35110 ft 490 kts 173°
2026-04-25 18:47 51.46526 9.81199 35112 ft 492 kts 173°
2026-04-25 18:47 51.39758 9.83201 35107 ft 492 kts 173°
2026-04-25 18:48 51.33093 9.85150 35118 ft 489 kts 173°
2026-04-25 18:48 51.26388 9.87089 35121 ft 489 kts 173°
2026-04-25 18:49 51.19676 9.87984 35125 ft 481 kts 187°
2026-04-25 18:49 51.12991 9.87377 35115 ft 481 kts 187°
2026-04-25 18:50 51.06315 9.86781 35130 ft 481 kts 187°
2026-04-25 18:50 50.99634 9.86197 35139 ft 481 kts 187°
2026-04-25 18:51 50.95164 9.85812 35142 ft 481 kts 187°
2026-04-25 18:51 50.86262 9.85049 35137 ft 480 kts 187°
2026-04-25 18:52 50.79616 9.84486 34531 ft 476 kts 187°
2026-04-25 18:52 50.76316 9.84203 33907 ft 474 kts 187°
2026-04-25 18:52 50.73034 9.83926 33224 ft 471 kts 187°
2026-04-25 18:53 50.70758 9.83732 32760 ft 469 kts 187°
2026-04-25 18:53 50.69049 9.83585 32416 ft 468 kts 187°
2026-04-25 18:53 50.65839 9.83307 31779 ft 465 kts 187°
2026-04-25 18:53 50.62623 9.83028 31165 ft 462 kts 187°
2026-04-25 18:54 50.56220 9.82469 29898 ft 458 kts 187°
2026-04-25 18:54 50.53054 9.82197 29194 ft 455 kts 187°
2026-04-25 18:54 50.49897 9.81928 28507 ft 453 kts 187°
2026-04-25 18:55 50.46760 9.81664 27848 ft 450 kts 187°
2026-04-25 18:55 50.43641 9.81400 27168 ft 447 kts 187°
2026-04-25 18:55 50.40537 9.81138 26529 ft 445 kts 187°
2026-04-25 18:55 50.37452 9.80877 25905 ft 442 kts 187°
2026-04-25 18:56 50.34399 9.80619 25340 ft 438 kts 187°
2026-04-25 18:56 50.31404 9.80371 25188 ft 423 kts 187°
2026-04-25 18:56 50.28519 9.80138 25064 ft 408 kts 187°
2026-04-25 18:56 50.25724 9.79912 24939 ft 394 kts 187°
2026-04-25 18:57 50.23022 9.79691 24705 ft 385 kts 187°
2026-04-25 18:57 50.20398 9.79468 24381 ft 379 kts 187°
2026-04-25 18:57 50.17745 9.79235 24125 ft 376 kts 187°
2026-04-25 18:57 50.16890 9.79159 24090 ft 376 kts 187°
2026-04-25 18:58 50.12546 9.78774 24110 ft 377 kts 187°
2026-04-25 18:58 50.07301 9.78338 24107 ft 378 kts 185°
2026-04-25 18:58 50.04662 9.78428 24108 ft 379 kts 185°
2026-04-25 18:59 49.99577 9.76893 24098 ft 371 kts 199°
2026-04-25 18:59 49.94573 9.74889 23859 ft 369 kts 199°
2026-04-25 19:00 49.89635 9.72887 23103 ft 364 kts 199°
2026-04-25 19:00 49.87181 9.71892 23108 ft 365 kts 199°
2026-04-25 19:01 49.82258 9.69896 23110 ft 366 kts 199°
2026-04-25 19:01 49.79797 9.68902 23109 ft 366 kts 199°
2026-04-25 19:01 49.77336 9.67911 23105 ft 366 kts 199°
2026-04-25 19:01 49.74868 9.66918 23109 ft 366 kts 199°
2026-04-25 19:02 49.69935 9.64970 23111 ft 366 kts 198°
2026-04-25 19:02 49.67488 9.64031 23112 ft 366 kts 198°
2026-04-25 19:02 49.65015 9.63085 23114 ft 366 kts 198°
2026-04-25 19:03 49.61703 9.61819 23116 ft 366 kts 198°
2026-04-25 19:03 49.57597 9.60254 23116 ft 366 kts 198°
2026-04-25 19:03 49.55110 9.59294 23112 ft 367 kts 198°
2026-04-25 19:04 49.50169 9.57350 22868 ft 365 kts 198°
2026-04-25 19:04 49.47719 9.56387 22417 ft 362 kts 198°
2026-04-25 19:05 49.42867 9.54478 21555 ft 358 kts 198°
2026-04-25 19:05 49.38068 9.52588 20720 ft 353 kts 198°
2026-04-25 19:05 49.35694 9.51654 20316 ft 351 kts 198°
2026-04-25 19:06 49.33331 9.50942 19898 ft 352 kts 185°
2026-04-25 19:06 49.28445 9.52354 18703 ft 365 kts 165°
2026-04-25 19:06 49.25990 9.53457 18074 ft 369 kts 165°
2026-04-25 19:07 49.21007 9.55726 16748 ft 376 kts 165°
2026-04-25 19:07 49.19340 9.56483 16327 ft 378 kts 165°
2026-04-25 19:08 49.14407 9.58708 15143 ft 358 kts 165°
2026-04-25 19:08 49.12056 9.59766 14583 ft 348 kts 165°
2026-04-25 19:09 49.05250 9.62802 12673 ft 330 kts 165°
2026-04-25 19:09 49.03797 9.63447 12250 ft 327 kts 165°
2026-04-25 19:09 48.98802 9.65666 10808 ft 316 kts 165°
2026-04-25 19:10 48.96701 9.66597 10202 ft 312 kts 165°
2026-04-25 19:10 48.94630 9.67515 9561 ft 308 kts 165°
2026-04-25 19:10 48.92592 9.68415 9003 ft 301 kts 165°
2026-04-25 19:10 48.90599 9.69295 8467 ft 294 kts 165°
2026-04-25 19:11 48.88662 9.70154 7964 ft 286 kts 165°
2026-04-25 19:11 48.86775 9.70990 7467 ft 279 kts 165°
2026-04-25 19:11 48.84926 9.71809 6984 ft 275 kts 165°
2026-04-25 19:11 48.83112 9.72610 6491 ft 269 kts 165°
2026-04-25 19:12 48.81307 9.73146 5978 ft 260 kts 183°
2026-04-25 19:12 48.79601 9.72503 5476 ft 251 kts 211°
2026-04-25 19:12 48.78335 9.70833 5053 ft 240 kts 238°
2026-04-25 19:12 48.77684 9.68580 5023 ft 234 kts 257°
2026-04-25 19:13 48.77248 9.66202 5021 ft 234 kts 256°
2026-04-25 19:13 48.76794 9.63856 4816 ft 230 kts 256°
2026-04-25 19:13 48.76348 9.61503 4420 ft 233 kts 257°
2026-04-25 19:13 48.75908 9.59132 4114 ft 232 kts 257°
2026-04-25 19:14 48.75477 9.56817 4004 ft 223 kts 257°
2026-04-25 19:14 48.75198 9.55316 4015 ft 217 kts 257°
2026-04-25 19:14 48.74661 9.52427 4021 ft 213 kts 257°
2026-04-25 19:14 48.74259 9.50268 4020 ft 212 kts 257°
2026-04-25 19:15 48.73858 9.48116 4019 ft 212 kts 257°
2026-04-25 19:15 48.73456 9.45962 4018 ft 212 kts 257°
2026-04-25 19:15 48.73053 9.43806 4015 ft 213 kts 257°
2026-04-25 19:15 48.72645 9.41622 3704 ft 220 kts 257°
2026-04-25 19:16 48.72222 9.39364 3242 ft 220 kts 257°
2026-04-25 19:16 48.71818 9.37223 2926 ft 204 kts 257°
2026-04-25 19:16 48.71442 9.35228 2678 ft 189 kts 257°
2026-04-25 19:16 48.71099 9.33405 2440 ft 169 kts 258°
2026-04-25 19:17 48.70792 9.31774 2171 ft 156 kts 257°
2026-04-25 19:17 48.70509 9.30244 1930 ft 145 kts 256°
2026-04-25 19:17 48.70228 9.28820 1788 ft 141 kts 256°
2026-04-25 19:17 48.69964 9.27401 1621 ft 140 kts 256°
2026-04-25 19:18 48.69698 9.26000 1434 ft 138 kts 256°
2026-04-25 19:18 48.69440 9.24608 1272 ft 137 kts 256°
2026-04-25 19:18 48.69187 9.23278 1216 ft 114 kts 256°
2026-04-25 19:18 48.69021 9.22384 1247 ft 65 kts 254°
2026-04-25 19:19 48.68911 9.21799 1252 ft 51 kts 253°
2026-04-25 19:19 48.68821 9.21320 1259 ft 45 kts 255°
2026-04-25 19:19 48.68740 9.20891 1271 ft 40 kts 253°
2026-04-25 19:19 48.68687 9.20630 1276 ft 37 kts 253°
2026-04-25 19:20 48.68690 9.20293 1286 ft 18 kts 284°
2026-04-25 19:20 48.68718 9.20111 1288 ft 17 kts 283°
2026-04-25 19:20 48.68783 9.19964 1291 ft 17 kts 315°
2026-04-25 19:20 48.68880 9.19876 1292 ft 15 kts 318°
2026-04-25 19:21 48.68874 9.19736 1295 ft 13 kts 256°
2026-04-25 19:21 48.68817 9.19454 1295 ft 11 kts 252°
2026-04-25 19:21 48.68840 9.19380 1295 ft 9 kts 347°
2026-04-25 19:22 48.68890 9.19359 1295 ft 0 kts 344°